GW4471 Weather Reports


Display with metric or nautical units.
time (UTC)temp
F
wind
direction
speed
MPH
gust
MPH
rain 1hr
in
rain 24hr
in
rain mn
in
humidity
%
barometer
mb
20260507155418 55 185 1.0 3.0 0.00 0.00 0.00 60 1014.6
20260507154418 55 0.0 1.0 0.00 0.00 0.00 60 1014.7
20260507152418 55 0.0 1.0 0.00 0.00 0.00 61 1014.9
20260507151418 55 72 2.0 4.0 0.00 0.00 0.00 60 1015.0
20260507145417 55 0.0 0.0 0.00 0.00 0.00 60 1015.0
20260507144417 55 50 1.0 2.0 0.00 0.00 0.00 60 1015.2
20260507141417 56 185 3.0 7.0 0.00 0.00 0.00 60 1015.4
20260507140418 56 185 2.0 3.0 0.00 0.00 0.00 60 1015.5
20260507135418 56 140 2.0 4.0 0.00 0.00 0.00 62 1015.5
20260507133418 56 72 2.0 4.0 0.00 0.00 0.00 63 1015.6
20260507132418 56 185 3.0 6.0 0.00 0.00 0.00 64 1015.7
20260507131417 55 140 2.0 4.0 0.00 0.00 0.00 63 1015.7
20260507130418 55 185 3.0 7.0 0.00 0.00 0.00 64 1015.7
20260507125418 55 72 2.0 3.0 0.00 0.00 0.00 66 1015.7
20260507124418 54 185 4.0 7.0 0.00 0.00 0.00 67 1015.8
20260507123418 54 50 1.0 2.0 0.00 0.00 0.00 68 1015.9
20260507122417 54 140 2.0 4.0 0.00 0.00 0.00 69 1015.8
20260507121417 53 230 1.0 2.0 0.00 0.00 0.00 71 1015.9
20260507120417 52 185 2.0 3.0 0.00 0.00 0.00 72 1015.9
20260507115418 52 185 1.0 3.0 0.00 0.00 0.00 72 1016.1
20260507113418 51 117 3.0 4.0 0.00 0.00 0.00 73 1016.1
20260507112418 51 140 2.0 4.0 0.00 0.00 0.00 74 1016.1
20260507111418 51 185 2.0 4.0 0.00 0.00 0.00 74 1016.2
20260507110417 51 95 1.0 2.0 0.00 0.00 0.00 75 1016.2
20260507105418 51 185 1.0 2.0 0.00 0.00 0.00 74 1016.3
20260507104417 51 162 3.0 5.0 0.00 0.00 0.00 74 1016.3
20260507101417 50 0.0 2.0 0.00 0.00 0.00 78 1016.1
20260507100417 50 140 1.0 2.0 0.00 0.00 0.00 77 1016.0
20260507095417 49 207 2.0 5.0 0.00 0.00 0.00 78 1016.2
20260507092417 48 162 3.0 7.0 0.00 0.00 0.00 83 1016.2
20260507091359 47 162 1.0 2.0 0.00 0.00 0.00 84 1016.3